Flag for USA

Past Weather in 41°29'17"N, 81°42'51"W, USA — Yesterday and Last 2 Weeks

Currently: 33 °F. Light snow. Fog. (Weather station: Cleveland-Hopkins International Airport, USA). See more current weather

Past Weather in 41°29'17"N, 81°42'51"W — Graph

°F

41°29'17"N, 81°42'51"W Temperature Yesterday

Maximum temperature yesterday: 34 °F (at 11:25 am)
Minimum temperature yesterday: 30 °F (at 12:51 am)
Average temperature yesterday: 32 °F

High & Low Weather Summary for the Past Weeks

 TemperatureHumidityPressure
High47 °F (Jan 13, 3:51 pm)97% (Jan 3, 10:02 am)30.41 "Hg (Jan 3, 10:02 am)
Low23 °F (Jan 9, 6:51 am)38% (Jan 9, 1:51 pm)29.53 "Hg (Jan 16, 1:19 pm)
Average33 °F83%30.02 "Hg
* Reported Jan 2 7:51 pm — Jan 17 7:51 pm, 41°29'17"N, 81°42'51"W. Weather by CustomWeather, © 2021

Note: Actual official high and low records may vary slightly from our data, if they occured in-between our weather recording intervals... More about our weather records

41°29'17"N, 81°42'51"W Weather History for the Previous 24 Hours

Scroll right to see more
 ConditionsComfort  
Time TempWeatherWind HumidityBarometerVisibility
7:51 pm
Sun, Jan 17
32 °FLight snow. Ice fog.7 mph96%29.75 "Hg2 mi
6:51 pm33 °FLight snow. Fog.7 mph92%29.75 "Hg2 mi
6:40 pm33 °FLight snow. Fog.7 mph92%29.68 "Hg2 mi
6:17 pm33 °FLight snow. Fog.7 mph92%29.68 "Hg2 mi
6:10 pm33 °FLight snow. Fog.7 mph92%29.68 "Hg3 mi
5:51 pm33 °FLight snow. Fog.5 mph92%29.74 "Hg2 mi
5:32 pm33 °FLight snow. Fog.6 mph92%29.67 "Hg4 mi
4:51 pm34 °FLight snow. Fog.5 mph88%29.73 "Hg4 mi
4:37 pm34 °FLight snow. Fog.6 mph85%29.66 "Hg2 mi
4:06 pm34 °FLight snow. Fog.7 mph85%29.66 "Hg3 mi
3:51 pm35 °FLight snow. Mostly cloudy.8 mph82%29.73 "Hg6 mi
2:51 pm36 °FLight snow. Mostly cloudy.13 mph82%29.72 "Hg9 mi
2:33 pm37 °FCloudy.12 mph79%29.65 "Hg9 mi
2:23 pm36 °FLight snow. Mostly cloudy.10 mph82%29.65 "Hg4 mi
1:51 pm36 °FCloudy.9 mph85%29.72 "Hg9 mi
1:02 pm36 °FCloudy.9 mph89%29.67 "Hg10 mi
12:51 pm35 °FCloudy.9 mph88%29.74 "Hg8 mi
12:13 pm35 °FLight snow. Fog.12 mph88%29.69 "Hg4 mi
11:53 am35 °FLight snow. Fog.12 mph88%29.69 "Hg4 mi
11:17 am34 °FLight snow. Fog.10 mph97%29.70 "Hg3 mi
11:07 am34 °FLight snow. Fog.10 mph92%29.71 "Hg3 mi
10:51 am34 °FLight snow. Fog.10 mph92%29.78 "Hg2 mi
9:55 am34 °FLight snow. Fog.10 mph88%29.70 "Hg2 mi
9:16 am34 °FLight snow. Fog.10 mph88%29.69 "Hg2 mi
8:51 am34 °FLight snow. Fog.9 mph92%29.76 "Hg4 mi
7:51 am33 °FLight snow. Fog.12 mph92%29.75 "Hg5 mi
7:15 am33 °FLight snow. Fog.13 mph96%29.67 "Hg5 mi
6:51 am33 °FLight snow. Fog.12 mph92%29.73 "Hg4 mi
6:10 am33 °FLight snow. Fog.10 mph92%29.65 "Hg3 mi
5:53 am33 °FLight snow. Fog.12 mph92%29.64 "Hg2 mi
4:51 am33 °FLight snow. Fog.12 mph92%29.70 "Hg6 mi
4:00 am33 °FLight snow. Low clouds.13 mph88%29.62 "Hg8 mi
3:05 am33 °FLight snow. Mostly cloudy.10 mph85%29.62 "Hg9 mi
2:35 am32 °FLight snow. Mostly cloudy.12 mph88%29.61 "Hg9 mi
1:51 am32 °FLight snow. Mostly cloudy.10 mph88%29.67 "Hg9 mi
1:23 am32 °FLight snow. Mostly cloudy.8 mph88%29.60 "Hg9 mi
12:51 am32 °FLight snow. Overcast.10 mph88%29.66 "Hg9 mi
11:51 pm
Sat, Jan 16
32 °FOvercast.12 mph85%29.66 "Hg10 mi
10:51 pm32 °FOvercast.10 mph82%29.66 "Hg10 mi
9:51 pm31 °FMostly cloudy.13 mph82%29.67 "Hg10 mi
9:24 pm32 °FOvercast.12 mph79%29.60 "Hg10 mi
Weather by CustomWeather, © 2021

See weather overview